Location: Elende
(51.4317°N, 10.6316°E)
Time: 10:43:58
(UTC+00:00)

COSMOS 2455 - Pass Details

Date: 18 September 2020
Orbit: 898 x 911 km, 67.1° (Epoch: 31 October)

Event Time Altitude Azimuth Distance (km) Brightness Sun altitude
Exits shadow 22:35:49 32° 30° (NNE) 1,525 4.3 -36.6°
Drops below altitude 10° 22:38:55 10° 36° (NE) 2,607 5.7 -36.7°
Sets 22:41:27 0° 38° (NE) 3,553 6.4 -36.8°
